Theta_e
302 301 302 302 303 302 302 301 301 300 301 301 302 302 302 306 304 304 305 304 305 307 308 310 312 314 315 316 317 319 324 327 330 332 332 332 332 333 333 332 331 331 333 332 333 332 331 331 330 331 331 330 330 330 331 331 331 331 330 329 328 328 327 325 323 322 325 330 333 333 335 335 333 334 332 332 331 330 326 328 328 328 326 325 323
301 301 302 302 302 302 302 302 301 300 300 300 301 301 301 301 302 304 304 304 305 305 307 309 311 312 313 314 315 317 320 324 327 330 331 331 331 332 332 331 331 332 332 332 332 332 332 331 331 331 331 330 331 330 331 331 331 331 330 329 329 327 329 326 325 324 323 327 330 334 333 335 331 333 330 330 329 327 326 325 326 326 325 324 324
302 302 301 301 301 301 301 301 301 300 299 299 299 299 300 301 303 303 303 303 305 306 306 307 309 310 311 312 314 315 318 321 325 327 329 330 330 331 331 331 331 331 331 331 331 332 331 331 331 331 331 330 331 331 332 331 331 331 330 330 329 328 328 329 326 323 324 324 330 331 331 332 331 331 332 331 330 328 325 324 324 324 324 324 321
301 301 301 301 301 300 300 301 300 300 299 299 299 299 300 300 303 302 303 304 304 305 306 307 308 309 310 311 312 314 316 319 322 325 328 329 329 330 331 331 331 331 331 332 331 330 331 330 331 331 331 330 330 331 331 332 331 331 331 331 330 329 328 328 329 326 326 325 327 330 331 331 332 333 332 331 329 327 326 325 325 324 324 323 320
300 300 300 300 300 299 300 300 300 300 299 299 299 299 299 300 301 302 303 303 303 304 305 306 306 307 308 309 311 312 314 317 320 323 326 328 329 330 331 331 331 331 331 332 333 331 331 331 331 332 331 330 330 330 331 331 331 331 331 331 331 330 329 328 328 328 327 326 326 331 332 332 332 332 331 327 327 327 326 324 324 323 323 322 320
298 299 299 299 299 299 299 300 300 300 300 300 299 299 300 300 301 301 302 302 302 304 304 304 306 305 307 308 310 312 314 316 319 321 324 326 328 329 330 329 330 332 332 332 331 331 331 331 331 331 331 330 330 331 331 331 331 331 330 331 330 330 328 328 328 328 328 327 327 327 330 330 329 330 330 328 325 324 323 323 323 323 320 319 318
298 298 298 298 298 298 299 299 300 300 300 300 300 300 300 300 300 300 302 302 302 302 303 302 304 304 305 307 309 311 313 316 318 320 322 324 326 328 329 330 330 331 332 332 332 332 332 332 331 331 332 332 331 331 331 331 331 330 330 330 331 330 328 327 327 327 327 326 326 328 328 330 329 327 328 329 328 326 322 320 319 321 320 319 316
298 298 298 297 297 298 299 299 300 300 300 300 300 299 300 300 300 301 302 301 302 302 301 302 302 304 305 306 308 311 313 315 317 319 322 324 326 327 329 329 328 330 332 332 332 331 331 332 332 332 332 333 333 333 332 330 330 329 330 330 330 330 328 327 326 326 326 325 326 325 327 327 328 329 328 327 324 323 324 321 318 317 318 318 318
297 297 297 297 297 298 299 300 300 300 301 301 300 300 300 300 300 300 301 302 304 302 302 302 302 302 303 305 307 310 312 315 318 320 322 324 326 327 328 329 327 328 330 332 332 332 332 332 332 332 332 335 335 335 334 333 331 329 330 330 330 329 328 327 325 325 325 326 325 327 326 324 325 325 323 322 321 321 323 323 320 320 319 317 317
297 297 297 297 298 298 299 300 300 300 299 299 299 299 299 300 300 300 300 300 301 302 301 302 302 302 303 304 306 309 312 315 319 317 317 323 325 326 328 328 329 330 330 330 331 332 332 332 333 336 334 336 335 327 322 323 329 332 331 331 330 329 328 326 325 325 325 324 324 324 323 324 325 325 323 324 325 325 323 322 320 320 318 317 317
297 297 297 298 299 299 299 298 299 298 299 299 299 299 299 299 299 299 300 300 300 300 302 301 301 302 303 304 305 308 311 315 313 307 307 309 318 322 325 328 330 330 330 329 328 330 331 332 332 334 334 335 332 321 318 317 318 321 323 328 333 330 328 326 326 326 325 325 326 325 324 324 326 327 325 325 326 324 323 322 321 319 317 315 314
298 298 299 299 299 299 299 299 299 299 299 299 299 299 299 299 299 299 299 299 300 301 300 300 301 301 303 304 305 307 310 314 306 306 305 305 309 320 323 327 328 328 329 329 329 330 330 330 331 332 333 332 332 330 322 318 314 315 315 317 318 321 322 328 327 326 327 326 325 325 325 325 326 327 326 326 325 325 324 323 322 319 317 317 317
299 298 299 299 299 299 299 298 298 298 298 299 299 299 299 299 298 298 298 300 300 299 299 300 300 301 302 303 304 307 310 309 305 305 305 303 303 311 321 326 328 328 328 329 329 330 330 329 329 330 332 336 335 333 329 326 317 315 316 317 318 316 309 311 317 331 330 328 327 325 326 327 327 327 328 328 327 324 323 322 322 321 321 319 319
298 298 298 298 298 298 298 298 298 298 298 298 299 298 298 298 298 299 300 300 299 299 300 300 300 301 302 303 305 307 309 310 305 305 304 303 302 304 317 322 326 329 329 329 328 330 329 329 328 328 330 332 332 332 331 330 326 323 325 327 328 329 315 310 313 317 326 330 329 327 329 330 328 329 330 329 327 325 323 322 323 322 321 320 323
298 298 298 298 298 298 297 297 297 297 298 298 298 298 298 298 298 299 299 299 299 298 299 299 299 301 302 303 305 306 309 308 304 303 302 302 301 303 314 319 324 328 329 329 330 330 328 329 329 329 329 331 332 332 331 329 327 325 326 327 327 329 327 325 328 328 330 332 331 330 331 332 332 331 331 330 330 329 326 325 324 324 324 323 321
297 297 297 297 297 297 297 297 297 297 297 298 297 297 298 298 298 299 301 299 300 300 300 300 300 301 302 303 304 306 309 304 303 302 302 301 300 309 313 316 320 325 328 329 329 330 328 329 330 330 330 330 328 316 325 330 327 326 325 326 327 329 328 330 319 320 332 332 332 332 332 332 323 332 331 331 331 331 329 327 326 324 322 320 319
297 297 298 297 298 298 297 297 297 297 298 297 297 297 298 298 299 300 298 298 298 298 299 299 301 301 302 303 305 307 309 307 302 301 301 300 301 310 313 316 319 324 328 329 329 327 327 328 329 330 330 330 321 308 310 321 327 326 326 326 327 328 327 329 313 310 311 311 311 311 312 311 310 311 312 314 325 327 327 324 322 323 322 319 319
296 297 297 297 297 297 297 297 297 298 297 297 297 298 298 299 298 300 298 298 298 298 299 300 301 302 303 304 306 308 309 310 303 302 301 300 305 311 313 316 318 322 326 327 327 327 328 332 332 330 329 330 312 306 306 321 327 326 326 325 325 325 326 328 324 317 306 305 304 304 305 306 306 307 309 309 310 320 327 323 324 323 322 322 318
296 296 297 297 297 297 297 297 298 298 297 297 298 298 298 298 299 299 299 299 299 300 301 301 301 302 304 305 311 310 309 310 304 301 301 300 304 311 314 316 318 322 325 326 326 327 327 331 332 328 330 325 306 305 305 322 328 327 327 326 324 324 325 324 323 319 319 319 318 317 314 313 320 323 321 308 311 322 329 329 326 324 323 322 321
297 297 297 297 297 297 298 300 300 299 298 298 298 298 299 298 298 298 299 299 300 301 301 302 302 303 305 307 309 310 310 312 311 302 301 300 301 312 315 316 318 322 325 325 325 326 327 328 326 312 311 308 304 303 305 312 327 328 328 326 325 324 327 325 324 323 323 324 323 325 324 323 324 326 324 318 320 329 328 329 327 327 325 323 321
297 297 297 297 297 298 298 298 297 298 298 298 298 299 299 298 299 299 299 300 301 301 301 302 303 304 306 308 309 310 311 311 311 303 301 301 300 304 314 317 320 323 324 324 324 324 325 327 329 316 306 305 303 302 305 307 317 329 329 327 327 327 323 325 325 327 325 325 324 325 323 322 323 324 322 321 323 326 326 323 326 328 327 324 322
297 296 297 297 298 298 298 298 299 298 299 299 298 298 299 299 299 299 300 300 300 300 300 301 303 304 306 308 309 309 312 314 312 304 300 300 300 299 312 318 322 324 324 324 324 325 325 327 328 317 304 302 302 302 303 305 307 328 328 313 308 306 325 327 326 325 325 324 323 322 321 321 321 322 321 322 324 326 327 327 325 327 329 328 325
297 297 297 297 298 298 298 298 298 299 299 299 298 298 299 298 299 299 300 300 300 301 302 304 304 305 305 306 307 308 309 311 308 309 303 299 299 299 302 312 309 325 324 324 324 325 327 327 328 313 301 300 300 301 303 303 311 322 306 302 303 306 317 326 323 323 322 322 322 321 320 321 320 320 320 321 324 326 327 327 326 326 326 327 328
296 296 297 297 296 297 298 299 299 299 299 300 299 299 299 300 301 301 302 302 303 303 304 304 304 304 304 305 306 307 308 309 307 305 306 299 299 298 300 304 307 322 325 325 326 326 326 327 321 301 300 299 300 300 302 304 317 302 300 301 302 310 324 321 321 322 320 320 321 321 320 321 322 322 321 323 324 325 326 326 327 327 326 325 325
295 295 295 295 296 298 299 299 299 299 299 299 299 300 301 302 302 304 304 303 303 303 304 304 304 304 304 304 305 307 308 310 311 306 302 300 298 298 300 302 305 309 322 325 323 326 314 306 300 299 299 299 299 299 300 304 300 299 300 300 316 323 323 323 322 321 320 320 321 321 321 321 323 324 324 324 324 324 324 323 323 324 325 325 323
295 295 295 296 297 299 298 298 299 299 300 300 301 302 302 303 302 301 302 303 303 302 303 304 304 304 304 305 307 309 311 312 311 309 306 304 301 299 301 302 308 310 319 320 311 304 300 299 298 297 298 299 304 308 309 306 300 300 299 309 325 324 323 323 321 321 320 320 320 320 321 322 323 323 323 323 322 322 322 321 322 323 322 321 322
295 295 295 297 298 298 298 297 298 299 299 300 301 302 303 301 299 301 302 300 301 302 302 302 303 304 303 305 307 308 309 309 308 307 307 306 308 307 306 310 309 308 313 309 305 304 301 303 302 300 302 301 305 307 307 301 303 308 315 323 324 324 323 324 323 323 321 322 320 322 322 323 322 319 320 320 321 321 323 322 323 323 323 323 323
295 295 297 298 298 298 298 300 300 298 299 300 300 301 300 297 297 298 298 298 300 301 301 301 301 300 301 302 301 301 300 301 305 309 309 310 311 312 313 314 315 313 310 310 310 310 307 302 301 306 306 307 309 311 310 311 313 314 320 320 321 322 324 325 325 326 325 325 323 321 319 320 321 322 321 322 321 321 322 321 323 322 320 321 321
296 297 297 298 297 299 298 298 298 298 299 300 302 302 297 295 296 297 298 297 295 295 296 297 300 300 299 300 299 298 297 297 297 297 306 303 311 314 313 313 312 311 310 305 311 310 308 309 308 308 308 309 311 311 311 311 312 314 318 319 321 322 322 323 322 321 320 319 319 319 319 320 320 321 320 321 321 320 321 322 322 321 320 323 323
296 297 298 297 297 298 298 298 298 299 300 301 301 301 297 293 293 294 294 294 292 292 292 293 295 299 298 297 298 297 296 296 295 295 295 296 296 298 301 302 303 306 303 302 308 309 309 309 309 308 309 310 310 310 311 313 314 315 315 310 318 321 320 320 320 319 320 319 319 319 320 320 319 319 321 321 319 319 319 314 321 321 319 322 323
297 297 298 297 297 297 298 298 298 300 301 301 301 300 299 298 294 293 293 293 292 292 292 292 292 292 298 297 296 293 293 294 295 294 295 295 296 296 296 297 298 299 300 305 307 307 306 305 306 307 309 310 310 311 312 313 313 314 314 315 317 316 315 318 318 316 316 318 317 318 318 318 318 318 319 318 318 317 317 319 321 322 321 321 323
296 296 297 297 298 297 298 298 299 300 300 301 300 299 298 297 298 296 293 292 292 292 292 292 293 293 293 296 300 297 295 295 295 295 295 295 296 296 296 296 296 297 298 300 302 302 303 302 302 303 304 305 306 307 310 312 313 314 314 313 313 314 316 316 316 319 318 319 318 316 319 319 319 317 317 317 313 315 316 316 319 320 321 322 323
296 297 297 297 298 298 298 298 299 299 299 299 299 299 298 297 296 297 298 295 294 293 292 292 292 292 293 294 294 294 294 295 295 296 296 296 296 296 296 296 297 298 300 302 301 300 301 301 301 301 302 301 302 303 304 306 308 310 313 312 311 312 313 312 316 318 316 317 318 318 318 319 318 316 311 316 317 317 316 317 319 319 320 320 318
298 298 298 297 297 298 298 299 299 297 298 299 299 298 298 298 298 298 297 296 297 295 294 293 293 293 293 294 294 294 295 295 295 296 296 296 297 297 298 298 297 298 300 302 302 301 302 302 302 302 303 303 303 303 304 305 306 307 308 309 309 311 313 315 316 314 314 315 316 315 317 317 316 318 318 318 318 318 317 316 318 317 318 319 319
296 295 295 295 298 299 299 299 298 297 297 298 298 298 298 297 297 296 296 294 294 293 294 296 295 294 294 294 294 294 294 295 295 295 296 296 297 297 299 301 300 300 300 301 301 302 301 301 301 301 302 302 301 301 302 303 304 305 305 306 308 309 309 310 311 313 314 315 315 314 314 315 317 317 316 317 316 316 315 316 317 318 318 318 319
295 294 295 295 297 297 297 297 296 295 295 297 298 297 297 297 297 296 295 295 295 294 294 296 296 294 295 294 293 294 294 294 294 294 295 296 296 298 299 298 297 297 297 298 298 298 299 299 299 300 300 300 300 301 301 301 301 302 303 303 303 304 304 305 304 306 307 308 308 309 310 313 314 315 316 315 315 315 315 316 316 315 316 318 320
294 292 292 293 294 295 295 295 295 293 291 295 297 297 296 295 295 296 296 295 294 294 294 295 296 297 296 297 298 294 294 293 293 293 294 294 295 297 297 297 296 295 295 296 296 296 296 296 297 298 298 298 299 299 299 299 299 299 299 300 300 300 300 301 301 301 303 304 305 306 307 308 309 312 314 312 312 314 314 313 312 311 311 312 305
293 292 291 290 292 293 293 293 292 290 293 295 296 296 295 294 294 293 293 293 293 293 292 293 293 293 293 294 300 297 294 293 293 293 293 293 293 295 294 294 294 293 293 293 293 294 293 293 294 294 294 295 296 296 297 297 298 298 298 297 298 297 297 297 296 299 299 300 300 302 302 304 306 307 307 309 309 311 311 310 314 313 309 303 310
291 289 287 287 288 291 291 291 291 291 292 293 294 293 292 292 292 292 292 291 291 290 289 290 290 290 290 293 293 295 293 290 289 289 289 290 290 291 291 291 291 291 291 291 290 290 290 290 290 291 291 292 292 293 294 294 294 295 296 296 295 295 295 295 295 295 296 296 296 297 297 298 300 302 304 305 305 306 308 308 309 311 312 312 313
289 289 288 287 289 290 290 289 290 290 290 291 292 292 292 291 291 290 290 289 289 288 288 288 288 288 290 291 291 291 289 288 288 288 288 288 288 288 289 289 289 289 289 289 289 289 289 289 289 289 289 290 290 291 292 292 293 293 294 294 293 293 293 293 293 292 292 293 293 293 293 293 294 296 296 297 298 302 303 304 303 307 309 310 313
289 289 287 287 287 289 289 289 289 289 290 290 290 291 290 290 290 290 289 288 288 287 287 287 287 288 288 288 290 289 288 287 287 287 286 286 286 286 286 287 287 287 288 288 288 288 288 288 288 288 288 288 289 289 290 291 291 292 292 291 291 291 291 291 291 291 291 291 291 291 291 291 291 292 291 292 293 297 297 299 300 302 301 303 305
288 288 288 288 288 288 288 288 289 289 289 288 289 289 289 289 289 289 288 288 287 287 287 287 287 287 288 288 288 288 287 286 286 285 285 285 285 285 285 285 285 286 286 286 287 286 286 286 287 287 286 286 287 287 288 289 289 290 290 290 290 290 290 290 290 290 290 290 291 291 291 290 290 290 291 292 294 294 294 295 295 296 297 298 298
288 288 287 288 288 287 287 288 288 288 288 288 288 287 288 288 288 288 288 287 287 287 287 286 286 286 286 286 286 286 286 285 284 284 284 284 284 284 284 283 284 284 285 285 286 286 286 285 285 286 286 286 286 286 286 287 288 289 289 289 289 289 289 289 288 289 289 290 290 290 291 291 290 291 291 291 293 293 293 293 293 294 294 295 296
288 287 287 287 287 287 287 287 287 288 288 287 287 287 287 288 287 287 287 286 286 286 286 286 286 286 286 286 285 285 284 284 284 283 283 283 283 282 283 283 283 283 283 284 284 285 285 285 284 285 285 286 286 286 286 286 287 287 288 287 287 287 288 287 287 288 288 289 289 289 290 290 290 291 289 290 293 292 292 293 293 293 293 294 295
287 287 287 286 286 286 286 287 287 287 287 287 287 287 287 287 286 286 286 286 285 285 285 285 285 285 284 284 284 284 283 283 283 283 282 282 282 282 282 283 283 283 283 283 284 284 284 284 284 284 284 284 285 285 286 286 287 287 287 287 286 286 286 287 287 288 289 289 289 289 289 290 292 292 291 291 290 292 289 292 292 290 292 292 293
287 287 286 286 286 286 286 286 286 286 286 286 286 286 286 286 286 285 285 285 285 284 284 284 284 284 284 283 283 283 283 283 282 282 282 282 282 282 282 282 283 283 283 283 283 283 283 283 283 283 283 283 284 284 285 285 285 286 286 286 286 286 287 287 288 288 289 289 289 289 289 290 291 291 289 292 291 291 293 293 293 292 293 292 293
287 287 286 286 286 286 286 286 286 285 285 285 285 285 285 285 285 285 284 284 284 284 283 284 283 283 283 283 283 283 283 282 282 282 282 282 282 282 282 282 282 282 282 282 282 282 282 282 282 282 282 283 283 283 283 284 285 285 285 285 285 286 287 287 288 288 289 289 289 290 290 290 290 291 290 292 291 292 290 291 291 291 292 290 291
285 286 286 286 286 286 286 286 285 285 285 285 285 285 284 284 284 284 284 284 283 283 283 283 283 283 283 283 283 283 283 283 283 283 283 283 282 282 282 282 281 281 281 281 282 282 282 282 282 282 282 282 282 282 283 283 283 284 284 285 285 285 285 285 288 288 289 289 290 290 291 291 290 290 290 290 291 290 289 289 289 289 289 288 289
284 284 284 285 286 285 285 285 285 285 285 285 284 284 284 284 284 284 284 284 283 283 283 283 283 283 283 283 283 283 283 283 282 282 282 282 282 282 282 281 281 281 281 281 281 281 281 281 281 281 281 281 282 281 282 282 282 283 283 283 283 281 283 283 285 287 286 289 290 290 290 290 289 289 289 289 289 289 288 289 288 287 287 287 287
283 283 283 283 284 284 285 286 285 285 285 285 284 284 284 284 284 284 284 283 283 283 283 283 283 283 283 282 282 282 282 282 282 282 282 281 281 281 281 281 280 280 280 280 280 280 280 280 280 280 281 281 281 281 281 281 281 282 282 281 280 281 282 283 283 283 287 289 289 289 290 289 289 289 289 289 289 288 287 287 287 287 287 287 287
282 282 282 282 283 283 283 284 284 284 285 285 284 284 284 283 283 284 283 283 283 283 283 283 283 283 283 282 282 282 282 281 281 281 281 281 281 281 280 280 280 280 280 279 279 279 279 280 280 280 280 280 280 280 280 281 281 281 279 279 280 281 281 283 286 283 283 285 289 289 289 288 288 288 288 288 288 288 286 286 287 287 287 287 287
Wind_Speed
7 8 7 8 8 9 10 8 9 7 7 7 6 7 6 6 6 7 7 9 8 7 6 7 7 7 8 9 11 11 11 11 10 9 10 11 12 12 12 11 12 12 12 12 12 12 12 11 11 10 10 11 9 9 10 11 9 9 8 8 8 7 8 8 8 5 1 1 4 6 8 9 7 9 8 9 8 7 7 5 6 5 4 4 6
8 9 8 8 9 10 11 9 8 7 7 7 7 7 6 6 6 6 7 9 8 9 9 7 7 8 8 9 10 11 12 13 12 10 10 11 13 11 12 13 13 14 12 13 13 12 11 12 11 11 11 12 10 10 10 9 11 10 10 10 9 9 8 8 7 7 5 5 6 6 8 10 6 8 8 9 10 7 7 6 3 4 5 6 6
9 8 8 9 10 11 10 9 9 8 8 8 8 8 8 7 6 7 7 8 8 8 9 8 8 8 8 9 10 11 12 12 12 11 11 12 13 12 12 13 15 14 12 12 13 13 12 12 13 11 10 11 12 11 10 10 11 11 11 9 10 9 8 8 7 7 7 7 8 9 9 9 7 8 10 9 9 9 9 9 7 5 5 6 6
10 10 10 11 12 10 10 10 10 10 9 9 9 9 8 7 6 7 8 7 8 8 8 9 8 8 9 9 10 10 12 12 12 12 12 12 12 13 13 14 14 14 14 13 12 12 13 13 13 12 12 12 12 11 10 10 10 11 11 10 10 11 9 7 8 7 6 7 8 9 9 9 7 8 8 10 8 9 8 9 7 6 6 5 6
10 11 11 12 12 11 11 10 10 11 11 10 10 9 8 7 6 8 8 8 8 8 9 8 8 8 8 10 11 11 12 13 13 13 13 11 12 13 14 14 14 14 15 14 13 13 14 14 13 13 13 13 12 11 11 14 12 11 11 9 9 9 9 9 8 7 7 7 8 7 6 7 8 9 9 10 7 8 9 9 8 7 6 5 4
11 12 11 12 12 12 12 11 12 13 13 12 12 11 9 7 8 7 8 9 8 8 9 9 8 10 10 10 11 12 12 13 14 14 14 14 12 12 13 12 14 15 15 14 13 12 13 14 14 14 14 15 13 13 13 15 13 12 11 10 9 9 10 11 9 8 8 9 10 9 7 7 5 7 11 11 10 8 9 7 7 6 7 6 4
11 10 11 11 12 12 12 13 13 13 12 12 11 9 9 9 8 9 8 9 9 9 9 10 9 9 10 11 12 12 13 13 13 13 14 14 14 13 13 14 16 15 14 14 14 14 14 13 14 15 15 14 14 13 12 13 11 12 12 11 10 11 10 10 10 11 9 9 10 9 9 7 9 7 10 10 9 11 11 9 7 6 7 8 6
11 11 11 12 12 13 13 13 13 14 13 12 11 10 9 9 9 9 8 9 9 10 10 10 10 9 10 11 12 12 13 13 13 14 14 14 13 13 12 13 14 15 15 15 15 15 15 14 15 16 16 15 14 13 13 12 11 11 10 11 12 12 11 10 10 10 11 10 10 11 9 7 7 7 8 11 9 7 9 10 10 10 9 7 6
11 11 12 12 13 13 13 13 12 13 13 13 12 11 11 10 9 9 8 9 8 9 10 10 11 12 11 11 12 12 12 12 11 12 12 13 13 14 13 14 15 17 16 16 16 15 15 15 15 15 17 19 19 15 14 14 12 12 12 13 13 12 11 10 10 11 10 10 10 9 9 7 6 9 11 10 11 12 11 9 7 8 8 6 5
11 12 13 13 13 13 13 13 13 13 13 13 13 12 11 10 9 10 10 10 10 9 10 11 11 12 12 12 12 12 12 11 15 20 16 13 12 11 12 14 16 16 16 15 15 16 16 14 14 23 23 24 21 20 20 19 18 14 13 13 13 12 11 12 11 12 11 11 11 14 13 10 9 11 12 12 10 8 11 10 9 9 7 6 3
12 13 14 14 13 13 13 13 12 14 14 13 13 12 12 11 10 10 10 10 10 10 10 12 12 12 11 12 14 13 12 12 19 18 18 19 15 12 13 14 15 16 15 15 15 16 15 15 14 18 19 19 19 20 19 20 18 17 17 18 16 15 13 12 11 12 12 11 11 11 11 12 11 11 12 10 10 11 12 11 9 9 10 10 8
13 14 14 14 14 14 13 13 13 14 13 14 13 13 12 12 11 10 10 10 10 10 11 12 13 13 12 12 14 14 14 17 19 19 20 20 16 13 12 13 14 15 15 16 15 15 13 13 13 12 14 16 16 16 17 18 19 19 18 18 18 19 17 16 14 12 12 12 11 12 12 13 11 11 11 10 10 10 11 11 11 11 11 10 9
13 14 14 14 14 13 13 13 13 13 13 13 13 12 13 12 11 10 11 11 10 11 12 12 13 13 13 13 15 15 15 18 19 20 20 19 17 14 12 13 14 16 16 16 16 15 13 13 11 11 12 23 17 13 13 15 18 19 16 18 18 19 17 16 16 15 12 10 11 12 14 11 13 12 12 12 11 11 12 12 10 8 9 10 10
13 14 14 14 14 14 13 14 14 13 13 12 12 12 11 12 11 10 9 10 11 12 13 14 14 15 14 14 14 16 16 18 19 20 19 18 16 14 12 14 16 15 15 15 15 15 14 13 13 12 11 13 14 14 13 14 11 11 10 11 12 17 16 17 17 16 16 13 12 14 11 11 12 13 14 14 15 13 13 14 13 11 12 13 10
13 13 13 14 13 13 13 13 13 13 12 11 11 11 11 10 11 11 10 12 12 12 13 14 13 14 14 13 14 16 16 21 19 19 19 18 17 13 10 12 13 14 14 15 15 14 14 13 14 13 13 13 13 15 15 14 13 13 13 11 12 13 14 15 15 14 13 12 13 14 13 13 13 14 13 14 15 13 13 15 16 12 9 5 4
13 13 13 13 13 13 12 12 12 12 12 11 11 11 11 12 13 12 10 12 12 12 13 13 15 16 15 14 15 17 17 20 19 19 19 18 16 10 11 13 14 15 14 15 15 12 13 14 13 14 14 14 16 18 17 13 13 13 12 13 12 12 13 14 15 13 13 12 11 10 10 12 11 12 13 13 12 9 7 6 7 8 9 8 7
12 12 13 13 13 12 11 12 12 12 11 11 12 12 12 13 12 10 11 13 13 13 15 13 13 16 16 15 16 16 17 18 19 19 19 19 13 9 10 11 13 14 14 15 13 11 13 14 13 12 14 14 16 19 18 17 13 14 13 10 10 10 10 10 12 15 13 11 10 12 13 15 15 17 18 19 14 12 11 11 13 13 12 11 8
12 12 12 12 12 12 12 11 12 12 11 12 12 12 11 10 12 10 12 14 15 15 14 12 14 15 17 17 16 17 16 16 18 18 19 18 15 11 10 10 13 14 14 12 11 12 14 21 16 13 13 14 18 20 19 18 13 14 13 13 10 10 9 9 7 6 10 12 12 14 15 15 16 17 18 17 17 15 12 14 13 11 11 9 9
12 12 12 12 12 12 11 11 11 11 11 11 11 13 13 13 13 12 13 13 15 13 13 14 16 15 16 17 24 21 17 16 19 20 20 19 15 10 10 10 12 13 13 12 12 12 12 16 22 17 14 14 19 20 21 19 14 13 14 11 10 11 9 9 10 9 7 7 5 7 6 10 12 12 13 18 19 17 14 11 10 11 9 8 7
12 12 12 12 12 11 10 9 8 9 11 12 12 13 13 13 14 14 14 13 13 13 14 14 17 16 16 16 15 17 17 15 16 20 20 20 19 12 10 10 12 14 13 11 11 12 12 12 15 18 18 18 19 21 22 22 16 13 13 12 12 14 10 11 11 10 8 9 9 8 8 8 7 7 10 9 10 14 9 5 8 9 9 9 8
12 12 12 12 12 11 9 8 10 11 10 12 13 13 12 13 15 15 15 15 15 15 17 17 17 17 16 17 16 16 15 16 16 19 19 20 19 17 11 12 12 13 13 13 11 12 12 11 11 17 20 19 20 22 23 22 17 13 13 13 13 12 12 10 13 16 10 10 10 9 9 8 8 7 9 9 9 9 8 7 9 9 10 8 8
12 12 12 12 12 10 10 10 9 10 11 11 13 14 14 14 14 16 15 15 16 17 17 16 14 15 15 14 14 15 18 24 15 17 20 20 19 20 13 13 14 14 13 12 12 12 12 11 11 16 21 20 20 22 22 20 17 12 13 13 12 17 14 11 11 10 10 9 10 9 9 9 8 8 8 9 11 11 11 10 9 9 8 9 11
12 11 12 12 10 10 10 10 10 8 10 13 14 16 16 15 17 16 16 16 16 16 16 14 15 15 13 12 12 13 14 15 21 17 20 21 22 21 21 16 19 15 15 14 15 14 12 11 12 17 20 19 20 21 20 21 15 12 15 15 17 18 14 10 10 10 9 9 11 11 9 10 10 10 10 9 9 10 10 10 9 9 8 6 6
11 11 11 10 10 9 9 11 11 12 13 13 14 16 16 14 13 12 13 12 12 13 12 13 12 12 11 11 11 12 13 13 17 23 20 24 23 23 24 22 18 14 14 13 12 11 11 11 11 20 19 20 21 20 20 15 11 15 17 17 19 17 10 9 11 11 11 11 11 10 10 10 9 10 10 9 8 9 8 7 6 6 5 4 5
12 11 10 9 9 9 11 11 12 12 12 14 14 14 14 14 11 9 8 9 10 11 10 9 10 10 11 12 13 13 14 15 15 19 25 22 24 23 24 20 21 20 14 10 10 10 11 15 19 20 19 19 20 19 16 15 16 17 18 18 17 10 10 9 9 10 13 13 12 10 9 9 9 7 8 8 7 7 6 4 4 5 6 5 4
13 11 10 9 9 9 11 12 13 13 14 12 12 12 12 11 10 10 8 8 9 9 9 9 9 11 11 11 12 12 12 12 12 13 15 21 18 23 22 22 22 21 17 12 14 16 18 19 21 20 18 16 14 12 11 12 17 19 19 19 12 10 10 10 9 11 11 11 10 10 8 6 7 7 8 8 10 10 9 8 8 6 7 7 5
12 10 9 9 9 9 10 11 12 12 13 11 10 11 10 10 9 7 7 7 8 9 9 8 9 7 6 7 8 9 9 9 8 9 9 12 11 14 15 16 18 14 10 11 13 14 17 17 14 16 15 20 19 16 14 13 12 11 13 11 10 11 12 11 11 10 8 8 9 8 8 6 7 8 9 8 8 8 8 9 9 8 8 8 7
12 10 10 9 9 10 10 15 15 11 12 10 10 9 9 8 7 8 10 11 11 12 13 14 14 14 12 8 11 12 13 9 7 10 11 11 11 10 10 11 10 10 13 11 10 10 9 11 15 11 12 12 10 9 10 10 11 11 9 8 9 10 12 14 12 9 9 8 7 7 6 7 8 8 8 8 7 8 7 8 9 8 7 7 5
13 11 9 8 9 10 10 12 11 11 10 9 8 5 7 10 10 10 10 8 8 10 11 14 14 14 12 11 11 15 13 12 8 7 12 11 12 12 11 11 10 12 14 18 13 12 11 10 11 12 13 14 12 11 10 8 6 6 9 7 6 7 9 8 9 9 9 9 10 10 9 7 7 6 7 7 7 7 7 5 5 8 6 6 7
12 10 8 8 10 11 12 12 11 11 10 8 9 7 5 10 13 11 8 15 21 22 18 13 13 10 13 13 13 14 13 11 20 24 22 22 22 20 18 19 19 17 21 22 18 12 11 10 9 11 12 12 12 11 11 11 9 8 7 8 9 8 8 8 8 8 8 8 8 10 10 8 7 7 7 7 6 6 6 7 6 7 8 7 8
10 9 9 7 10 11 12 11 12 10 8 8 7 7 9 12 19 21 21 21 21 22 21 21 22 22 17 12 14 20 20 26 31 26 24 25 26 27 23 23 24 25 24 19 15 13 11 12 10 9 8 9 9 10 10 9 8 9 8 7 7 8 8 8 8 8 9 9 8 6 7 7 7 6 6 6 7 6 5 4 6 7 8 8 7
9 9 8 8 10 10 12 10 10 11 9 6 6 6 8 10 12 15 17 18 17 18 18 18 20 23 25 20 13 13 19 24 29 28 21 26 26 29 25 23 22 25 28 28 17 12 12 12 11 10 10 11 9 9 7 6 6 8 9 9 8 7 7 7 7 8 8 8 8 7 7 7 7 7 7 7 6 7 6 5 5 6 6 6 5
9 10 8 9 9 11 11 11 8 9 9 7 6 6 6 7 9 8 9 11 15 19 21 21 21 21 20 19 20 18 18 20 26 26 22 25 26 29 25 22 21 26 31 21 16 14 13 13 12 11 12 11 9 10 9 8 8 8 8 9 9 8 8 7 7 8 7 7 8 7 6 7 7 7 5 7 7 6 6 6 5 5 6 5 4
10 9 8 9 9 9 9 10 10 9 8 7 5 5 5 4 5 5 6 8 10 14 18 23 22 20 19 19 18 19 19 19 21 22 23 24 24 26 23 23 29 29 25 15 16 13 12 14 13 12 11 12 11 10 11 10 9 10 10 10 9 8 8 7 8 8 7 7 7 7 6 6 6 7 6 5 5 5 6 5 5 5 5 5 5
9 10 14 13 8 9 8 9 8 9 8 8 7 6 6 5 6 6 6 7 8 9 9 12 16 20 17 15 19 22 23 23 23 21 20 25 24 21 22 20 20 18 17 13 13 14 13 13 13 12 11 12 12 12 11 11 10 9 9 10 10 11 10 10 9 9 8 7 7 6 6 6 6 6 7 6 6 6 6 5 5 5 5 4 4
8 8 8 10 9 8 8 8 7 8 8 7 6 6 6 6 6 5 5 6 7 7 7 8 6 11 19 19 21 23 26 27 26 26 26 28 24 23 19 17 18 16 13 12 15 14 13 12 12 11 11 12 11 11 11 12 11 10 9 9 9 10 10 10 10 10 9 9 8 8 7 7 6 5 5 5 5 5 5 5 5 4 4 4 4
7 7 7 8 7 7 8 8 8 8 7 7 7 7 7 7 6 5 6 7 7 7 7 7 8 11 13 11 13 20 25 26 27 27 26 25 25 18 15 14 14 14 13 12 12 13 14 12 11 11 11 11 10 10 10 11 10 10 10 10 9 11 10 10 9 9 9 9 7 7 8 7 7 6 6 8 7 6 5 4 3 3 3 2 2
7 7 7 8 8 8 8 8 9 10 8 8 7 7 7 7 7 7 7 8 9 9 9 9 9 9 10 10 13 9 14 21 27 23 21 21 18 15 14 14 14 14 13 13 13 13 12 11 10 10 8 9 9 8 8 9 9 9 9 9 9 10 12 12 12 9 8 8 7 6 8 7 6 7 8 8 7 6 6 5 5 5 3 2 2
7 10 13 14 8 8 8 8 8 8 8 8 7 7 8 7 7 7 7 7 8 8 6 8 9 8 9 9 8 10 21 17 14 11 12 13 13 13 13 12 13 13 13 10 10 10 9 10 9 10 9 9 9 7 7 7 7 7 6 7 7 7 8 7 8 7 8 8 7 7 7 6 7 7 7 6 6 6 6 6 6 5 5 5 3
8 8 9 13 8 8 8 8 7 8 8 7 8 7 8 8 7 7 6 8 9 8 9 10 11 11 9 9 8 11 14 10 10 9 10 10 11 11 11 12 11 10 10 10 10 9 10 9 9 8 8 8 8 8 7 7 7 6 7 8 8 9 9 8 7 7 8 7 7 7 7 7 6 6 7 7 6 6 6 5 5 4 4 3 3
6 7 7 8 10 7 7 8 8 9 7 7 7 7 8 8 7 6 7 9 9 9 10 11 11 10 11 13 16 16 14 11 9 10 10 10 10 11 11 10 10 10 10 10 9 9 10 9 9 9 9 9 8 8 9 8 8 9 9 8 8 9 8 9 8 8 8 8 8 7 7 7 6 6 7 6 5 6 5 5 5 5 5 5 4
6 7 7 7 8 7 7 8 8 8 7 6 8 8 7 7 7 7 8 9 9 9 10 10 10 10 15 23 18 18 14 10 10 10 10 10 11 10 10 10 10 10 9 9 9 8 9 10 9 9 9 8 8 8 8 9 9 9 8 8 8 8 9 8 8 8 8 7 8 8 7 6 5 6 6 5 6 6 5 6 5 5 4 4 4
7 6 6 6 7 8 8 7 7 8 8 9 9 7 8 7 8 7 9 9 8 8 9 10 9 8 10 14 14 15 13 11 11 10 10 9 10 10 10 10 9 9 9 9 8 8 8 9 9 8 9 9 8 7 8 8 8 8 8 8 8 8 8 7 6 6 6 7 7 6 7 6 5 6 6 5 6 6 6 6 6 5 5 4 4
7 6 7 7 7 7 7 7 7 7 8 8 8 7 7 8 8 9 9 9 9 9 9 9 8 8 8 8 9 11 11 10 10 10 10 10 10 10 10 9 9 10 9 10 9 8 8 9 9 9 9 8 8 9 8 8 8 8 8 7 7 7 7 6 6 5 5 5 5 5 5 5 4 5 4 3 5 5 5 5 5 5 4 4 4
7 7 7 8 8 8 7 8 7 7 7 7 7 8 8 8 8 8 8 9 9 9 9 8 8 8 8 9 10 10 10 9 9 9 9 9 10 10 9 9 9 10 9 9 8 9 9 9 9 9 9 8 8 8 8 8 8 8 7 7 7 7 6 5 5 4 4 5 5 5 4 4 6 5 4 4 3 3 1 3 2 2 2 3 3
7 7 7 7 7 7 8 7 7 7 7 8 8 8 8 8 8 8 8 8 8 8 9 9 8 9 9 9 9 10 9 9 9 9 8 9 9 9 9 9 9 9 9 8 8 9 8 8 9 9 9 8 8 8 8 8 8 8 7 7 7 6 5 4 4 4 5 5 5 4 4 4 5 4 4 3 3 2 3 3 3 2 2 2 3
7 7 6 6 6 6 7 7 8 8 8 8 8 8 8 8 8 8 9 9 8 8 9 9 9 10 9 9 10 10 9 10 9 9 10 9 9 9 9 9 9 9 9 9 9 9 9 9 9 9 9 8 8 8 8 8 8 8 8 7 7 6 5 4 4 4 4 4 3 4 5 4 5 4 5 5 3 4 4 3 4 4 3 2 4
6 6 6 6 6 6 7 7 8 8 8 8 8 8 8 8 7 8 8 8 9 8 9 9 10 9 10 10 10 9 9 10 10 10 9 9 9 8 8 8 8 8 8 9 9 9 9 8 8 8 9 9 9 8 8 6 6 7 6 6 7 6 5 5 6 6 5 4 4 5 4 4 5 5 5 5 5 5 4 3 3 3 4 3 3
6 7 6 6 7 7 7 7 8 8 7 7 8 8 8 8 8 8 8 8 8 9 9 9 9 9 10 10 10 9 9 9 10 9 9 9 8 8 8 8 8 8 8 9 9 9 9 8 8 8 9 9 9 8 7 6 6 6 6 6 7 10 9 9 7 6 5 6 6 6 6 6 6 6 5 5 5 4 4 4 4 4 4 3 4
6 6 6 7 7 7 7 7 6 6 7 7 7 8 8 8 8 8 8 8 8 9 9 9 10 9 9 9 9 8 8 9 9 9 9 8 8 7 8 8 8 8 9 9 8 8 8 8 8 9 8 8 8 7 6 6 6 6 6 7 10 11 11 11 11 10 6 5 7 7 7 7 7 6 6 5 5 5 5 4 5 4 4 4 4
7 7 7 7 8 7 7 7 8 7 7 7 7 7 7 7 7 7 7 8 9 9 9 9 9 9 9 9 9 9 9 9 8 8 8 8 8 8 9 9 9 9 10 9 8 8 8 8 8 9 8 7 6 6 6 6 6 6 7 9 10 10 10 9 7 8 9 6 5 6 7 7 7 8 7 6 6 6 5 5 5 5 5 4 5
Wind_Direction
256 255 257 261 260 261 260 257 257 253 259 257 253 255 255 258 265 269 293 295 299 293 284 284 286 287 293 294 295 294 291 286 278 265 247 237 230 227 230 218 217 219 212 205 206 208 209 208 207 205 197 201 200 192 192 192 192 191 180 179 186 182 177 179 187 194 232 218 172 179 157 155 168 162 151 149 147 139 128 124 142 137 124 115 119
245 248 250 247 250 254 257 257 254 255 254 265 265 263 254 246 250 264 270 281 293 297 293 290 285 289 290 290 289 288 288 284 281 272 261 246 237 227 224 223 228 226 212 210 203 203 204 208 206 202 199 207 199 198 192 188 193 195 186 183 187 187 188 176 188 167 174 167 183 172 158 164 161 160 149 147 147 138 132 141 137 131 131 134 128
251 250 251 249 247 248 253 259 260 257 254 255 257 261 262 252 239 252 261 272 277 280 287 289 287 283 283 286 285 285 284 282 279 274 265 256 243 231 222 219 223 225 226 217 204 199 201 205 208 201 196 202 205 202 192 188 191 194 191 183 187 185 184 187 161 173 164 186 183 176 164 165 166 162 156 156 153 146 145 155 153 142 130 133 124
253 255 255 254 252 254 253 253 257 258 257 255 252 254 256 263 256 253 255 261 273 279 276 279 283 284 282 282 283 283 283 280 279 274 269 263 257 240 227 222 219 220 227 226 217 203 201 206 207 202 196 201 203 201 197 192 190 194 193 185 184 183 180 180 182 165 170 164 190 185 169 163 163 161 160 157 149 154 152 150 148 148 145 133 123
263 260 257 258 258 254 253 251 252 255 255 255 254 254 251 251 254 256 255 254 262 276 283 284 281 280 282 283 283 283 281 280 279 276 270 266 258 249 235 225 218 217 219 223 218 206 202 203 205 201 197 202 202 200 198 196 192 189 192 186 187 182 179 181 182 170 163 174 174 180 161 170 162 162 155 156 148 134 142 153 159 160 147 134 123
260 263 263 264 265 263 260 256 253 252 253 255 253 252 252 247 252 257 256 263 267 266 272 283 283 284 281 278 277 278 277 275 276 275 274 271 263 251 238 224 230 220 219 218 213 218 207 204 205 204 200 202 203 200 197 195 190 189 187 184 181 175 175 178 177 176 171 175 166 171 174 169 154 163 161 155 152 144 148 151 155 162 156 149 140
259 260 265 267 271 271 267 261 256 253 251 250 249 246 243 244 244 252 254 258 262 267 269 273 277 276 278 279 275 274 275 273 272 272 272 271 265 255 242 226 220 219 216 215 212 210 208 205 205 206 204 201 199 194 188 189 192 191 183 180 181 187 181 174 173 178 176 167 175 173 173 175 166 157 161 162 159 163 158 158 172 173 180 182 171
271 274 276 276 276 275 271 265 260 255 252 250 248 244 241 239 241 247 253 257 258 261 270 275 277 275 274 276 274 272 270 269 269 267 266 264 262 255 242 226 225 223 215 214 213 211 209 204 206 207 207 203 201 194 186 188 190 188 178 180 187 190 187 175 172 177 179 171 175 176 177 166 167 152 145 160 156 158 166 168 172 178 185 196 197
274 275 273 270 268 268 269 268 265 262 261 260 257 252 246 243 245 248 249 255 256 261 267 272 276 277 272 270 273 269 265 263 262 260 260 261 257 256 246 232 217 222 217 216 213 209 206 204 206 208 208 204 198 193 190 190 186 185 184 185 186 188 184 173 173 175 178 176 178 169 176 171 175 152 160 163 173 174 173 168 170 175 170 170 194
274 276 275 273 272 269 268 266 265 264 263 259 257 254 250 245 242 244 246 250 256 260 266 267 266 270 274 272 270 269 262 260 257 256 256 261 264 263 255 240 225 217 218 217 216 214 206 202 206 207 203 200 199 198 196 193 191 191 184 185 183 181 177 174 174 178 176 181 176 173 179 187 181 172 166 175 175 146 155 167 178 176 158 179 189
279 277 275 276 275 274 271 268 265 262 259 259 258 256 253 248 244 243 246 250 255 259 262 267 266 267 266 270 273 267 262 257 257 258 260 257 256 260 258 243 225 219 217 213 217 213 209 202 199 204 198 201 206 202 197 193 192 193 188 187 183 179 176 176 179 178 180 180 175 172 179 185 182 175 170 165 171 162 167 172 167 159 172 175 198
281 279 277 275 273 271 270 270 268 265 263 261 260 256 254 250 246 244 247 252 253 255 259 260 265 266 266 264 265 265 262 256 253 254 255 256 250 249 253 244 229 220 215 213 212 209 205 200 195 196 198 199 205 202 198 192 192 194 190 188 184 187 185 180 174 176 179 178 176 177 180 187 178 172 170 164 167 164 167 169 172 172 172 189 196
279 278 277 277 276 274 273 272 270 269 265 263 260 255 251 249 247 246 248 251 257 257 258 261 264 263 261 262 263 262 262 255 250 250 251 252 248 240 247 248 235 219 213 212 211 208 201 201 198 191 197 200 199 196 193 196 196 192 189 187 187 187 189 192 189 178 173 173 176 179 188 176 177 180 173 170 163 170 168 177 177 172 182 189 199
275 276 278 278 277 276 276 275 274 272 269 265 261 258 254 250 249 249 254 258 257 260 260 258 260 263 260 258 260 262 259 255 249 249 250 250 247 239 241 246 241 225 213 213 212 207 203 193 187 190 192 194 198 198 191 193 184 183 186 189 193 196 189 186 189 182 179 180 177 184 183 177 182 177 174 165 171 175 169 180 179 175 183 198 193
275 274 275 276 277 276 274 274 273 274 272 268 264 259 253 253 251 251 251 254 257 258 261 261 260 260 259 254 257 258 256 251 246 246 247 246 246 240 240 250 252 236 220 214 209 205 197 193 187 186 187 192 193 194 189 186 181 183 188 188 196 196 195 193 190 186 184 189 186 187 181 184 182 175 170 174 180 177 173 180 182 178 162 109 77
277 278 278 279 278 277 276 275 274 271 270 265 257 254 250 247 251 252 252 257 256 258 259 256 260 261 257 253 253 254 253 247 243 244 243 240 234 231 233 245 247 239 226 214 209 197 192 195 191 185 185 189 194 193 191 180 182 181 179 192 196 196 197 201 191 185 187 190 190 182 176 178 171 170 172 175 176 161 157 115 116 136 156 174 182
280 280 281 282 282 281 277 275 275 274 269 265 259 255 253 253 255 254 258 258 260 258 258 256 255 258 256 252 249 248 250 242 237 239 240 236 229 223 226 233 240 237 221 208 195 188 198 198 192 187 183 187 182 183 185 175 180 179 181 182 189 192 194 191 189 191 183 169 152 152 161 168 164 166 171 174 169 156 149 152 167 169 173 185 188
282 283 284 284 284 283 282 280 277 274 270 263 260 260 260 262 261 255 255 261 260 257 257 255 255 251 251 248 242 244 248 245 237 236 235 231 222 225 222 226 234 232 224 207 188 187 193 196 191 187 185 187 172 174 174 174 179 176 182 181 177 180 187 180 173 163 153 144 148 154 157 159 162 165 170 170 163 160 164 171 171 168 178 176 176
289 289 288 287 287 287 284 281 275 272 270 267 265 266 264 262 262 261 256 256 259 260 257 254 256 254 248 245 245 244 245 243 232 231 228 224 222 223 223 226 230 228 216 199 189 190 194 196 190 185 188 178 167 172 173 178 181 179 182 176 179 184 179 162 162 142 144 130 125 124 140 163 161 168 173 171 168 175 183 177 160 173 169 173 153
292 290 287 286 286 282 280 274 273 269 267 268 267 265 268 269 267 265 261 258 258 257 258 254 255 255 249 242 240 242 243 242 232 225 222 222 219 219 221 226 225 220 207 192 183 187 191 194 196 186 185 171 169 175 177 180 183 184 180 176 176 188 171 168 169 161 159 160 159 160 152 157 156 146 152 166 179 182 174 160 164 169 173 170 163
292 291 289 289 289 285 281 265 265 265 262 268 273 273 272 270 269 267 265 261 257 257 257 254 252 250 246 243 242 240 238 236 230 219 214 214 213 209 224 224 223 209 198 189 181 182 190 193 191 183 181 170 172 176 179 182 180 179 184 184 185 171 152 164 168 167 165 164 160 160 156 156 159 155 154 160 176 178 177 168 178 186 180 167 163
291 294 296 296 292 281 273 270 263 268 270 272 279 279 274 267 265 264 263 261 257 251 251 249 245 246 244 238 237 236 235 233 224 215 209 207 207 203 212 222 216 197 187 183 178 186 189 185 189 178 174 169 173 174 176 178 174 173 183 180 148 138 159 166 162 163 163 156 157 156 159 159 160 157 158 164 175 184 187 184 181 189 193 184 176
296 300 299 293 283 279 278 275 274 273 279 283 283 281 277 273 266 262 259 256 257 251 248 247 251 249 241 233 229 227 226 228 223 220 207 200 204 201 203 215 202 192 182 181 184 184 183 178 179 159 164 163 168 170 172 173 170 169 160 148 150 153 153 154 155 156 160 160 158 162 166 166 162 162 162 166 177 182 185 186 187 193 196 192 187
304 299 293 286 283 280 278 284 284 284 285 289 289 287 281 271 261 256 251 252 259 259 258 255 248 248 248 248 240 234 230 227 224 219 210 194 194 192 197 207 185 185 183 183 180 171 167 175 161 152 155 157 162 169 171 166 156 147 148 151 150 155 151 151 157 160 159 154 164 166 171 172 169 172 174 170 172 178 181 172 168 189 185 112 112
303 295 289 284 281 283 294 295 290 288 291 293 291 284 284 290 286 274 277 272 266 270 264 253 252 248 248 249 242 232 225 219 215 208 200 183 183 185 189 194 184 178 179 182 169 169 157 139 137 145 148 152 158 161 158 157 146 148 148 151 154 152 153 155 152 151 157 165 170 169 170 174 176 175 166 153 149 142 141 128 116 110 112 115 112
305 297 290 283 285 298 306 303 297 295 300 301 298 302 305 305 302 295 289 292 297 286 279 279 269 260 250 234 214 203 187 182 178 175 174 174 174 179 182 188 182 180 173 158 152 135 133 133 138 138 139 142 142 142 149 152 152 150 152 155 158 158 154 155 154 154 161 166 165 170 164 149 159 147 144 144 155 167 158 159 162 161 138 128 134
308 301 290 288 297 307 309 298 298 306 308 311 307 305 312 312 307 306 322 315 298 294 294 299 308 333 3 66 88 85 96 109 123 136 139 150 158 169 180 180 166 151 127 119 121 126 128 133 141 145 146 147 145 147 141 138 137 143 150 159 158 158 156 158 161 156 149 151 159 158 155 137 122 126 145 156 160 160 163 160 173 175 161 156 157
314 301 292 295 304 312 311 301 307 315 312 314 310 325 339 339 342 2 352 334 323 327 335 343 355 4 10 29 65 64 62 50 82 130 139 148 144 156 166 151 142 129 105 94 100 110 107 117 123 113 116 105 107 111 103 125 136 146 151 150 154 154 151 150 142 141 142 141 131 130 118 135 144 144 146 157 156 154 158 162 170 165 158 140 135
314 303 295 305 312 318 311 308 314 316 319 318 324 353 2 357 11 27 20 2 6 4 350 357 3 9 11 22 57 72 57 47 37 77 107 118 135 139 144 132 120 118 113 109 100 99 103 107 110 126 127 130 128 129 119 101 107 124 126 123 138 127 121 124 129 132 130 130 129 137 146 143 144 142 146 147 155 154 156 150 148 149 148 156 161
315 308 303 310 316 320 318 317 323 325 330 342 352 353 37 33 41 34 358 21 29 27 26 15 3 3 28 31 29 63 75 69 62 68 84 95 94 90 97 104 109 111 110 108 107 101 105 109 115 116 121 105 100 119 120 117 116 115 119 126 122 124 121 118 117 125 126 127 138 145 147 150 144 144 138 136 134 137 142 149 146 145 151 168 164
314 311 313 316 313 318 313 321 328 333 344 2 355 352 24 29 28 27 32 35 32 27 22 22 24 26 33 44 33 45 61 67 65 56 64 81 88 91 89 95 105 111 105 97 88 98 100 95 91 101 109 111 105 113 122 126 129 124 108 112 107 111 115 121 126 126 132 132 135 136 135 131 136 136 133 127 130 128 105 125 144 153 160 163 167
314 312 315 318 315 315 310 324 336 339 348 356 358 357 32 45 44 24 29 33 31 32 27 24 33 42 39 34 33 51 49 62 71 67 54 72 77 82 82 87 93 93 96 93 85 80 84 86 83 79 88 85 83 79 69 88 108 113 113 104 95 100 107 111 121 124 126 128 132 134 132 129 136 138 135 129 132 133 128 123 146 157 157 164 167
315 317 322 317 311 312 316 324 344 339 340 353 0 6 32 58 62 51 15 12 29 36 30 24 29 39 43 52 52 60 64 64 72 74 69 67 71 75 74 73 77 87 79 78 89 83 79 80 78 74 73 80 78 80 74 72 71 64 74 91 79 77 75 82 94 97 101 111 114 102 118 128 130 127 133 131 135 139 146 148 155 148 150 152 158
326 325 328 317 316 317 324 323 346 340 337 345 6 11 12 16 26 20 29 26 15 20 26 31 28 32 38 47 58 59 62 67 71 76 76 71 67 73 76 70 65 60 74 81 84 81 80 80 75 73 74 75 70 69 74 72 74 81 78 73 72 73 76 78 80 84 86 87 90 94 95 98 100 113 119 120 122 127 133 134 136 140 141 156 158
345 333 335 339 332 330 325 331 343 336 339 351 360 13 11 30 40 40 39 40 39 32 23 22 27 38 42 37 49 56 58 56 60 62 67 74 70 67 70 67 63 56 57 59 71 75 71 71 74 70 69 70 66 68 64 60 59 65 72 76 71 69 65 67 65 58 62 66 70 72 70 87 87 90 101 107 106 104 113 118 125 132 139 141 141
355 349 344 342 342 332 328 332 346 342 342 344 360 25 27 35 44 48 42 41 41 45 35 29 33 33 44 41 42 55 59 57 54 53 53 58 55 56 64 65 66 64 66 60 70 69 69 70 72 71 69 67 66 65 69 71 61 58 57 61 65 72 72 69 69 72 70 67 65 68 68 62 67 82 86 82 94 101 113 116 129 133 134 148 159
354 356 348 340 335 332 331 333 354 345 338 351 14 31 33 36 35 37 46 44 44 41 36 17 18 32 32 26 29 50 57 61 56 53 54 59 60 59 65 68 76 72 66 67 73 75 66 56 60 61 58 64 63 67 71 74 73 71 65 62 60 70 67 69 66 66 69 70 59 58 62 62 58 64 92 91 79 80 85 93 109 114 128 118 99
355 355 352 341 339 343 346 346 347 346 1 16 25 30 37 37 37 40 49 51 46 40 34 23 27 32 20 2 8 35 55 55 52 45 43 48 54 61 62 64 65 68 67 60 60 71 72 66 57 59 51 58 56 45 50 58 61 63 68 69 66 62 61 62 58 58 62 68 57 47 57 48 41 51 55 71 74 73 68 69 81 86 78 89 131
356 350 349 348 349 354 353 353 357 354 3 15 23 32 39 42 41 44 46 51 48 43 34 31 30 15 11 356 4 38 59 51 51 43 47 50 51 54 57 56 63 63 62 57 54 54 59 61 52 57 58 55 58 49 56 59 55 56 53 65 63 63 60 61 64 61 59 60 57 51 53 51 52 52 54 65 58 57 62 61 60 69 77 75 74
357 354 346 348 355 357 1 1 1 7 10 9 19 29 41 44 37 42 47 56 55 49 49 47 41 31 17 23 13 57 66 51 46 47 51 47 45 42 49 52 51 53 52 46 46 48 56 55 51 52 48 47 46 47 46 50 56 62 66 70 76 72 65 66 64 62 60 59 62 55 49 41 39 47 53 53 48 48 48 51 46 49 50 50 43
0 352 347 350 352 348 5 8 16 14 9 14 16 30 39 45 48 43 57 64 63 60 57 56 53 43 29 38 39 59 75 66 53 53 49 54 49 50 48 47 50 53 52 52 51 51 54 56 51 53 54 51 50 54 56 54 55 61 62 60 62 66 65 63 62 62 61 61 65 63 56 50 46 49 50 46 41 53 48 44 44 39 33 30 23
4 2 359 358 356 5 9 14 12 10 14 25 32 35 38 43 47 48 53 62 60 61 65 61 55 55 44 43 39 56 68 62 57 59 54 51 53 53 52 52 48 50 53 54 56 57 60 64 61 58 59 54 53 53 56 58 58 61 62 62 62 61 61 57 55 56 56 59 60 64 64 59 60 60 56 49 54 51 49 46 44 45 35 29 26
14 9 360 358 10 14 13 6 5 18 26 31 34 35 38 40 44 47 49 47 52 56 67 68 64 57 54 49 45 53 65 59 60 56 53 55 56 55 53 52 49 49 52 55 56 61 66 70 68 64 63 61 57 53 57 64 66 69 68 69 69 67 65 60 55 51 51 53 53 50 54 52 53 52 52 52 56 53 53 48 46 43 40 34 28
21 12 7 5 3 11 18 13 8 17 35 36 39 39 39 44 48 51 54 51 49 51 58 60 58 56 55 41 41 53 60 59 58 57 57 57 57 58 57 55 54 55 55 57 56 59 65 69 68 65 63 61 59 58 59 57 57 61 63 65 65 61 62 54 53 49 49 55 54 55 55 54 55 54 47 42 47 47 42 44 41 40 34 34 25
31 22 16 13 14 17 17 22 19 23 32 35 43 44 37 43 48 48 50 54 52 52 53 54 52 57 55 48 48 56 56 58 58 59 60 60 63 63 62 61 63 65 64 60 57 63 69 70 71 69 65 59 54 54 52 53 52 54 54 55 60 56 49 44 42 40 45 54 54 54 51 53 62 57 54 51 46 51 42 30 16 355 359 357 355
40 32 25 20 19 19 21 23 23 30 32 39 44 47 41 42 45 48 52 53 53 57 59 56 55 55 57 58 59 60 60 60 61 59 62 62 65 66 66 67 69 70 66 63 57 56 56 58 61 62 61 58 54 53 52 49 50 49 49 49 51 51 48 46 43 45 46 47 46 48 42 47 46 47 36 38 49 45 44 39 23 359 338 326 313
42 39 32 28 25 23 25 28 35 36 37 39 41 43 46 44 47 51 52 51 51 56 57 57 58 58 58 60 62 65 65 67 68 67 65 65 65 65 64 67 67 64 60 60 58 57 55 55 57 58 57 56 56 53 50 48 52 52 49 48 47 45 47 47 49 56 57 54 48 54 48 46 41 41 31 33 42 39 32 32 23 3 354 340 324
33 39 39 33 31 31 29 29 34 35 42 43 44 43 42 44 46 48 50 50 50 53 59 59 58 59 62 61 62 64 66 69 70 72 71 68 64 62 61 60 60 63 65 63 60 57 57 55 56 57 58 56 55 51 49 38 44 45 45 45 41 36 35 44 66 64 68 69 73 66 59 56 57 52 39 38 38 31 27 20 19 15 1 350 337
34 36 35 33 38 35 34 31 35 38 39 43 47 49 48 46 48 49 48 49 51 52 55 59 60 59 59 59 60 62 63 66 66 65 65 64 63 64 62 62 65 66 65 64 60 57 57 55 54 55 58 56 53 47 40 34 32 31 28 30 21 27 43 48 59 57 60 69 71 75 74 74 69 63 53 50 47 44 32 26 17 7 355 352 344
37 38 38 41 36 34 38 39 38 34 35 40 47 53 50 53 53 54 52 53 56 57 56 57 59 56 58 56 53 53 55 58 59 62 64 66 65 68 69 69 68 68 65 62 58 55 55 53 52 52 52 51 51 45 39 37 30 27 23 18 19 30 33 40 45 45 46 57 63 68 75 75 73 67 60 56 51 48 41 30 22 15 17 13 10
45 43 45 48 51 38 34 37 39 36 34 41 46 51 52 54 54 55 55 59 62 61 60 60 60 59 60 57 57 56 59 61 62 64 63 62 62 62 62 64 64 65 65 64 62 58 55 55 54 52 47 43 43 40 35 33 32 27 24 24 31 34 37 38 42 40 48 52 65 70 74 73 73 66 59 55 56 54 47 42 36 33 27 22 20